Showing default

RUBIN 9.1/RUBIN 9.2/PSLV, 35936

Orbit data source: Space-Track

RUBIN 9.1/RUBIN 9.2/PSLV, 35936 is a payload satellite owned by ISRO (DE) in SSO that was launched on Wed, 23 Sep 2009 UTC launched from the Sirharikota (SRI). Payload-class satellites include a variety of spacecraft equipped with specific instruments for various scientific and technological missions. These include communications satellites like Starlink; space stations such as the ISS; scientific satellites like the Hubble; Earth observation satellites from companies like Planet Labs, Umbra, and HawkEye 360; GPS; miniature CubeSats for education and research; and military/defense satellites.

Loading next visibility...
Identifier
35936, 2009-051F
Orbit
SSO
Country
Flag of DEDE / GER
Related business
Manufacturer
VSSC/LPSC
Mission
Non-operational spacecraft
Bus & Motor
PS-4, Unknown motor
Mass
920 kg wet, 920 kg dry
Launch date (UTC)
2009-09-23 (16 years ago)
Launch vehicle
Unknown
Launch site
Sirharikota (SRI)
Object type
Payload
Rocket body
Debris
Shape & HBR
Cyl + Cyl + 2 Nozzle, 1.6 m
Radar Cross Section
3.727 m², Large (>1 m²)

Expand to show TLE details & history
Last TLE update: 12 hours ago

TLE from 12 hours ago
0 RUBIN 9.1/RUBIN 9.2/PSLV
1 35936U 09051F   25346.78000386  .00000509  00000-0  16097-3 0  9993
2 35936  98.3012 269.5310 0052358 264.8692  94.6521 14.43443005853648
Epoch: 2025-12-12T18:43Z
TLE epoch observation values (Epoch: 2025-12-12T18:43:12.333Z)
Latitude
-0.00009°
Longitude
-92.98709°
Altitude
753.325 km
Speed
7.476 km/s
True Right ascension
17h 58m 07s
True Declination
0° 00' 00"
Sunlit
Object was in daylight at epoch
Visualization orbit readout
Latitude
Unknown
Longitude
Unknown
Altitude
Unknown
Speed
Unknown
Apparent Right ascension
Unknown
Apparent Declination
Unknown
Sunlit
N/A
Visualization observer readout
Local Sidereal Time
05:21:42
Azimuth
Unknown
Elevation
Unknown
Doppler factor
Unknown
Orbital elements
Apogee altitude
781.545 km
Perigee altitude
706.962 km
Semi-major axis
7,122.39 km
Eccentricity
0.00524
Inclination
98.3012°
RAAN
269.531°
Arg. of periapsis
264.8692°
True anomaly
95.24977°
Mean anomaly
94.6521°
Eccentric anomaly
94.95097°
Mean motion
3.61081 °/min
Orbital period
99.7 mins
BSTAR
0.00016097
Loading maneuver chart data...
Computing Atmospheric mass density...
Loading historical data...
Loading historical data...
Loading historical data...
Loading historical data...
Loading historical data...
Loading historical data...
Loading historical data...
Other satellites on launch #51 in the year 2009 (2009-09-23 UTC)

Documentation

Showing up to 5 results
|